TimeCDT,TemperatureF,Dew PointF,Humidity,Sea Level PressureIn,VisibilityMPH,Wind Direction,Wind SpeedMPH,Gust SpeedMPH,PrecipitationIn,Events,Conditions,WindDirDegrees,DateUTC
12:03 AM,24.8,21.2,86,30.05,2.0,Calm,Calm,-,N/A,,Clear,0,2013-03-15 05:03:00
12:53 AM,24.1,23.0,96,30.06,1.2,Calm,Calm,-,N/A,,Clear,0,2013-03-15 05:53:00
1:04 AM,24.8,21.2,86,30.03,2.0,Calm,Calm,-,N/A,,Clear,0,2013-03-15 06:04:00
1:27 AM,23.0,19.4,86,30.01,1.8,Calm,Calm,-,N/A,,Clear,0,2013-03-15 06:27:00
1:39 AM,23.0,19.4,86,30.01,2.0,Calm,Calm,-,N/A,,Clear,0,2013-03-15 06:39:00
1:53 AM,21.9,19.9,92,30.04,2.0,Calm,Calm,-,N/A,,Clear,0,2013-03-15 06:53:00
2:16 AM,23.0,21.2,93,30.01,3.0,Calm,Calm,-,N/A,,Clear,0,2013-03-15 07:16:00
2:53 AM,24.1,21.9,91,30.04,4.0,Calm,Calm,-,N/A,,Clear,0,2013-03-15 07:53:00
3:53 AM,25.0,24.1,96,30.01,4.0,Calm,Calm,-,N/A,,Clear,0,2013-03-15 08:53:00
4:53 AM,26.1,23.0,88,29.98,4.0,Calm,Calm,-,N/A,,Clear,0,2013-03-15 09:53:00
5:53 AM,26.1,25.0,96,29.99,4.0,Calm,Calm,-,N/A,,Mostly Cloudy,0,2013-03-15 10:53:00
6:53 AM,27.0,24.1,89,30.00,4.0,Calm,Calm,-,N/A,,Mostly Cloudy,0,2013-03-15 11:53:00
7:42 AM,28.4,26.6,93,29.96,2.5,Calm,Calm,-,N/A,,Mostly Cloudy,0,2013-03-15 12:42:00
7:53 AM,28.0,26.1,92,29.99,2.5,Calm,Calm,-,N/A,,Overcast,0,2013-03-15 12:53:00
8:15 AM,28.4,26.6,93,29.95,3.0,Calm,Calm,-,N/A,,Overcast,0,2013-03-15 13:15:00
8:53 AM,30.0,27.0,88,29.97,3.0,Calm,Calm,-,N/A,,Overcast,0,2013-03-15 13:53:00
9:53 AM,32.0,30.0,92,29.96,3.0,Calm,Calm,-,0.00,,Overcast,0,2013-03-15 14:53:00
10:02 AM,32.0,28.4,87,29.92,2.5,Calm,Calm,-,0.01,,Overcast,0,2013-03-15 15:02:00
10:49 AM,33.8,30.2,87,29.91,3.0,NNE,3.5,-,0.01,Rain,Light Rain,30,2013-03-15 15:49:00
10:53 AM,33.1,30.0,89,29.94,3.0,Calm,Calm,-,0.01,Rain,Light Rain,0,2013-03-15 15:53:00
11:00 AM,33.8,30.2,87,29.92,2.5,NNE,3.5,-,0.01,Rain,Light Rain,30,2013-03-15 16:00:00
11:53 AM,34.0,30.9,89,29.96,2.0,Calm,Calm,-,0.05,Rain,Light Rain,0,2013-03-15 16:53:00
12:53 PM,35.1,32.0,89,29.96,2.5,Calm,Calm,-,0.02,Rain,Light Rain,0,2013-03-15 17:53:00
1:08 PM,35.6,32.0,87,29.92,2.0,Calm,Calm,-,0.00,Rain,Light Rain,0,2013-03-15 18:08:00
1:28 PM,35.6,33.8,93,29.91,2.0,Calm,Calm,-,0.01,Rain,Light Rain,0,2013-03-15 18:28:00
1:53 PM,35.1,33.1,92,29.92,2.0,NE,3.5,-,0.01,Rain,Light Rain,40,2013-03-15 18:53:00
2:53 PM,36.0,34.0,93,29.86,2.0,ENE,3.5,-,0.00,,Overcast,60,2013-03-15 19:53:00
3:05 PM,37.4,33.8,87,29.82,4.0,ENE,5.8,-,N/A,,Overcast,60,2013-03-15 20:05:00
3:53 PM,36.0,33.1,89,29.84,3.0,NE,6.9,-,N/A,,Overcast,50,2013-03-15 20:53:00
4:53 PM,36.0,32.0,86,29.88,3.0,ENE,3.5,-,N/A,,Overcast,70,2013-03-15 21:53:00
5:02 PM,35.6,32.0,87,29.85,3.0,East,5.8,-,N/A,,Overcast,90,2013-03-15 22:02:00
5:53 PM,36.0,32.0,86,29.86,4.0,East,5.8,-,N/A,,Overcast,80,2013-03-15 22:53:00
6:53 PM,36.0,32.0,86,29.87,3.0,ENE,4.6,-,N/A,,Overcast,70,2013-03-15 23:53:00
7:53 PM,36.0,32.0,86,29.86,4.0,ENE,3.5,-,N/A,,Overcast,70,2013-03-16 00:53:00
8:41 PM,35.6,32.0,87,29.80,3.0,Variable,3.5,-,N/A,,Overcast,0,2013-03-16 01:41:00
8:53 PM,35.1,32.0,89,29.81,3.0,ENE,5.8,-,N/A,,Overcast,70,2013-03-16 01:53:00
9:27 PM,35.6,32.0,87,29.79,2.5,ENE,4.6,-,N/A,,Overcast,60,2013-03-16 02:27:00
9:53 PM,35.1,32.0,89,29.82,2.5,NE,5.8,-,N/A,,Overcast,50,2013-03-16 02:53:00
10:18 PM,33.8,32.0,93,29.80,1.8,ENE,3.5,-,N/A,,Overcast,60,2013-03-16 03:18:00
10:53 PM,35.1,33.1,92,29.81,2.0,Calm,Calm,-,N/A,,Overcast,0,2013-03-16 03:53:00
11:15 PM,35.6,33.8,93,29.79,1.8,Variable,3.5,-,N/A,,Overcast,0,2013-03-16 04:15:00
11:34 PM,33.8,33.8,100,29.81,1.2,NNE,5.8,-,N/A,,Overcast,20,2013-03-16 04:34:00
11:53 PM,34.0,33.1,96,29.84,1.5,NE,6.9,-,N/A,,Overcast,50,2013-03-16 04:53:00